Etusivu
METAR-TAF:

METAR-TAF

Lentoasemat :

Springbok, Etelä-Afrikka

Leveyspiiri: 29-40S, Pituuspiiri: 17-53E, korkeus merenpinnasta: 1006 m

Tämänhetkinen sää

Tämä raportti tehtiin 17 tuntia ja 22 minuuttia sitten, kello 08.36 UTC
Tuuli 8 kn idästä
Lämpötila 22°C
Kosteus 16%
Ilmanpaine 1017 hPa
Näkyvyys 10 km tai enemmän
ei pilviä alle 1500 m:ssä eikä cumulonimbus-pilviä

METAR: FASB 190836Z 09008KT CAVOK 22/M05 Q1017

Aika: 03:58 (01:58 UTC)


TAF: puuttuu

Säähavainnot ja -ennusteet yli 4000 lentoasemalta (METAR- ja TAF-raportit).

Käytössä olevat sääasemat on merkitty karttaan keltaisilla ja punaisilla pisteillä.

Aseta hiiri pisteen päälle nähdäksesi sääaseman nimen.

Klikkaa sitten nähdäksesi säähavainnot ja -ennusteet.

Kartan vaihtaminen: klikkaa mustalla rastilla varustettuja vihreitä pisteitä, niin voit zoomata sisään; viivalla varustettua vihreää pistettä, niin voit zoomata ulos tai vihreitä nuolia, niin pääset viereisille kartoille.


METAR-TAF: